Total_Precipitation_Accumulation
0.18 0.44 0.77 0.99 1.33 0.85 0.32 0.22 0.15 0.12 0.09 0.05 0.03 0.04 0.09 0.18 0.35 0.73 0.60 0.32 0.19 0.18 0.26 0.33 0.46 0.47 0.40 0.37 0.45 0.56 0.67 0.79 0.79 0.74 0.64 0.45 0.39 0.30 0.29 0.28 0.29 0.28 0.24 0.29 0.32 0.36 0.36 0.32 0.28
0.36 0.81 1.05 1.58 1.41 0.52 0.32 0.22 0.20 0.14 0.10 0.08 0.04 0.02 0.05 0.09 0.13 0.34 0.55 0.45 0.17 0.10 0.17 0.27 0.41 0.49 0.47 0.50 0.62 0.68 0.73 0.77 0.71 0.62 0.49 0.41 0.38 0.34 0.34 0.38 0.38 0.31 0.26 0.29 0.32 0.42 0.38 0.30 0.26
0.43 0.85 1.14 1.47 0.75 0.36 0.33 0.24 0.20 0.12 0.07 0.06 0.04 0.02 0.05 0.14 0.21 0.41 0.55 0.34 0.18 0.14 0.21 0.32 0.45 0.51 0.52 0.57 0.66 0.74 0.74 0.70 0.64 0.58 0.47 0.41 0.37 0.35 0.36 0.39 0.41 0.35 0.26 0.23 0.29 0.33 0.29 0.27 0.21
0.56 0.99 1.29 0.94 0.46 0.26 0.22 0.22 0.16 0.12 0.06 0.03 0.03 0.05 0.10 0.17 0.28 0.43 0.44 0.34 0.28 0.28 0.31 0.35 0.50 0.53 0.52 0.64 0.70 0.73 0.64 0.58 0.61 0.58 0.50 0.44 0.35 0.34 0.38 0.36 0.32 0.25 0.21 0.21 0.25 0.29 0.27 0.24 0.16
0.62 1.17 1.29 0.74 0.45 0.29 0.22 0.15 0.09 0.08 0.06 0.04 0.04 0.09 0.20 0.25 0.30 0.36 0.36 0.35 0.36 0.45 0.51 0.46 0.55 0.53 0.51 0.64 0.73 0.73 0.75 0.72 0.72 0.70 0.61 0.55 0.44 0.39 0.40 0.33 0.25 0.18 0.18 0.23 0.33 0.36 0.24 0.20 0.16
0.93 1.33 1.57 0.94 0.58 0.37 0.26 0.17 0.09 0.08 0.06 0.06 0.08 0.16 0.25 0.31 0.34 0.42 0.42 0.47 0.49 0.50 0.50 0.50 0.63 0.60 0.58 0.66 0.71 0.66 0.71 0.82 0.85 0.77 0.73 0.87 0.66 0.50 0.39 0.32 0.25 0.19 0.17 0.21 0.28 0.32 0.22 0.20 0.22
1.05 1.45 1.34 0.81 0.57 0.55 0.34 0.17 0.11 0.11 0.11 0.12 0.11 0.23 0.30 0.37 0.31 0.34 0.39 0.44 0.46 0.44 0.46 0.47 0.55 0.62 0.64 0.72 0.81 0.80 0.83 0.91 0.96 0.81 0.79 0.87 0.61 0.41 0.34 0.31 0.28 0.25 0.22 0.22 0.22 0.25 0.25 0.23 0.26
0.52 0.86 0.97 0.78 0.59 0.53 0.29 0.13 0.08 0.08 0.09 0.10 0.12 0.21 0.40 0.43 0.33 0.37 0.42 0.47 0.49 0.50 0.51 0.48 0.52 0.64 0.78 0.80 0.80 0.88 0.95 0.94 0.99 0.87 0.83 0.77 0.51 0.36 0.34 0.30 0.29 0.30 0.30 0.29 0.28 0.29 0.26 0.23 0.23
0.50 0.72 1.00 0.96 0.61 0.43 0.27 0.18 0.11 0.08 0.09 0.10 0.09 0.12 0.22 0.29 0.33 0.44 0.51 0.50 0.55 0.57 0.59 0.55 0.49 0.52 0.67 0.79 0.73 0.94 1.04 1.01 0.94 0.91 0.90 0.79 0.50 0.40 0.40 0.35 0.40 0.40 0.42 0.41 0.38 0.35 0.27 0.20 0.16
0.61 0.83 0.99 0.73 0.48 0.31 0.23 0.17 0.13 0.11 0.14 0.13 0.10 0.12 0.17 0.25 0.34 0.42 0.45 0.50 0.53 0.54 0.49 0.50 0.48 0.47 0.49 0.57 0.83 1.18 1.04 0.95 0.80 0.82 0.79 0.79 0.71 0.62 0.46 0.45 0.56 0.58 0.56 0.53 0.47 0.41 0.28 0.15 0.10
0.60 0.59 0.59 0.57 0.35 0.20 0.14 0.13 0.13 0.11 0.16 0.16 0.15 0.15 0.18 0.24 0.30 0.31 0.35 0.40 0.45 0.48 0.47 0.44 0.42 0.41 0.44 0.59 0.72 0.94 1.02 1.00 0.87 0.75 0.75 0.83 0.78 0.64 0.51 0.45 0.50 0.57 0.60 0.52 0.47 0.40 0.24 0.16 0.14
0.52 0.39 0.34 0.31 0.20 0.16 0.15 0.12 0.11 0.12 0.14 0.12 0.13 0.16 0.22 0.27 0.28 0.27 0.32 0.39 0.44 0.47 0.51 0.51 0.43 0.42 0.45 0.50 0.50 0.59 0.67 0.72 0.71 0.64 0.65 0.77 0.72 0.65 0.62 0.59 0.55 0.57 0.56 0.60 0.56 0.47 0.34 0.25 0.21
0.41 0.34 0.27 0.20 0.18 0.17 0.16 0.14 0.12 0.12 0.12 0.11 0.14 0.21 0.27 0.29 0.29 0.30 0.31 0.34 0.39 0.43 0.49 0.50 0.47 0.43 0.43 0.44 0.44 0.43 0.54 0.58 0.61 0.65 0.62 0.65 0.68 0.66 0.64 0.59 0.64 0.66 0.62 0.65 0.61 0.50 0.42 0.37 0.30
0.34 0.28 0.25 0.19 0.18 0.20 0.17 0.14 0.13 0.16 0.14 0.12 0.14 0.18 0.21 0.26 0.30 0.31 0.32 0.33 0.34 0.36 0.44 0.47 0.47 0.49 0.47 0.45 0.45 0.47 0.54 0.59 0.59 0.53 0.52 0.58 0.58 0.60 0.68 0.72 0.72 0.73 0.74 0.80 0.77 0.55 0.51 0.49 0.40
0.25 0.25 0.25 0.22 0.19 0.22 0.19 0.16 0.15 0.19 0.16 0.14 0.13 0.14 0.15 0.19 0.23 0.29 0.33 0.33 0.34 0.39 0.44 0.46 0.49 0.55 0.55 0.53 0.55 0.51 0.58 0.60 0.59 0.61 0.61 0.65 0.66 0.68 0.75 0.83 0.83 0.82 0.79 0.82 1.03 0.89 0.62 0.54 0.48
0.30 0.33 0.38 0.25 0.24 0.29 0.27 0.21 0.17 0.21 0.19 0.18 0.17 0.16 0.15 0.17 0.20 0.22 0.25 0.30 0.33 0.41 0.50 0.57 0.51 0.54 0.60 0.62 0.67 0.68 0.70 0.72 0.69 0.69 0.72 0.73 0.76 0.79 0.86 0.89 0.81 0.87 0.93 0.95 1.10 1.15 0.81 0.60 0.57
0.34 0.39 0.37 0.28 0.23 0.27 0.29 0.22 0.19 0.22 0.18 0.17 0.18 0.17 0.15 0.16 0.17 0.16 0.17 0.21 0.29 0.41 0.53 0.61 0.58 0.59 0.68 0.77 0.86 0.87 0.85 0.86 0.84 0.85 0.81 0.84 0.87 0.94 0.99 0.98 0.94 0.96 0.96 1.04 1.04 1.22 1.14 0.88 0.73
0.41 0.33 0.25 0.21 0.21 0.22 0.25 0.19 0.17 0.20 0.18 0.16 0.15 0.15 0.13 0.13 0.16 0.16 0.13 0.14 0.20 0.32 0.45 0.60 0.72 0.84 0.91 0.99 1.08 1.13 1.07 1.01 1.05 1.09 1.07 1.08 1.12 1.09 1.13 1.14 1.17 1.24 1.20 1.16 1.08 1.23 1.29 1.06 0.97
0.35 0.28 0.23 0.16 0.15 0.13 0.11 0.12 0.14 0.17 0.18 0.16 0.14 0.13 0.12 0.11 0.11 0.09 0.09 0.14 0.20 0.29 0.38 0.54 0.88 1.30 1.49 1.41 1.39 1.48 1.60 1.60 1.52 1.50 1.48 1.53 1.52 1.51 1.54 1.50 1.47 1.41 1.34 1.38 1.37 1.55 1.84 1.39 1.17
0.33 0.33 0.27 0.20 0.13 0.10 0.08 0.07 0.09 0.11 0.13 0.14 0.13 0.14 0.13 0.11 0.08 0.06 0.08 0.11 0.17 0.32 0.47 0.59 0.85 1.29 1.50 1.61 1.73 1.95 2.16 2.08 1.97 1.95 1.91 1.99 1.99 2.14 2.12 2.09 2.03 1.90 1.85 1.84 1.75 1.79 2.02 1.67 1.45
0.32 0.33 0.27 0.21 0.12 0.10 0.07 0.06 0.08 0.10 0.09 0.09 0.11 0.14 0.14 0.12 0.11 0.11 0.10 0.14 0.18 0.27 0.39 0.53 0.71 1.00 1.32 1.59 1.88 2.20 2.44 2.44 2.34 2.18 2.15 2.21 2.27 2.41 2.53 2.52 2.54 2.34 2.17 2.14 2.07 2.00 2.06 2.08 1.84
0.23 0.17 0.12 0.10 0.10 0.10 0.07 0.10 0.10 0.13 0.13 0.12 0.13 0.13 0.15 0.15 0.14 0.16 0.16 0.16 0.18 0.23 0.30 0.43 0.61 0.87 1.11 1.36 1.79 2.24 2.56 2.68 2.61 2.50 2.45 2.41 2.43 2.47 2.66 2.68 2.77 2.60 2.46 2.38 2.29 2.09 2.13 2.37 2.24
0.13 0.08 0.07 0.07 0.08 0.07 0.06 0.09 0.12 0.13 0.16 0.16 0.16 0.16 0.16 0.16 0.17 0.20 0.20 0.22 0.24 0.22 0.26 0.38 0.54 0.78 1.02 1.25 1.62 2.05 2.35 2.59 2.76 2.59 2.45 2.47 2.49 2.50 2.61 2.75 2.83 2.69 2.56 2.48 2.58 2.42 2.34 2.22 2.13
0.08 0.06 0.06 0.06 0.07 0.07 0.05 0.11 0.19 0.18 0.17 0.15 0.14 0.15 0.17 0.19 0.24 0.27 0.35 0.39 0.39 0.33 0.36 0.45 0.54 0.68 0.84 0.99 1.23 1.48 1.83 2.13 2.49 2.48 2.41 2.52 2.50 2.38 2.30 2.47 2.68 2.61 2.60 2.60 2.66 2.67 2.61 2.54 2.49
0.04 0.08 0.12 0.12 0.13 0.11 0.08 0.18 0.29 0.25 0.19 0.18 0.18 0.18 0.20 0.22 0.26 0.34 0.47 0.51 0.53 0.46 0.43 0.45 0.55 0.61 0.67 0.78 0.91 1.07 1.34 1.55 1.93 2.25 2.23 2.14 2.18 2.19 2.21 2.24 2.27 2.27 2.36 2.52 2.76 2.69 2.55 2.51 2.56
0.05 0.09 0.17 0.20 0.19 0.19 0.19 0.34 0.42 0.31 0.23 0.21 0.19 0.20 0.23 0.27 0.34 0.50 0.65 0.68 0.68 0.60 0.53 0.52 0.60 0.63 0.65 0.70 0.73 0.83 0.99 1.12 1.30 1.54 1.65 1.68 1.73 1.93 2.00 2.11 2.10 2.10 2.17 2.27 2.40 2.43 2.40 2.35 2.31
0.07 0.10 0.13 0.20 0.18 0.20 0.30 0.46 0.43 0.27 0.25 0.27 0.27 0.28 0.37 0.47 0.55 0.67 0.81 0.83 0.75 0.69 0.61 0.60 0.64 0.73 0.73 0.72 0.74 0.83 0.89 0.93 1.05 1.09 1.24 1.43 1.46 1.50 1.60 1.68 1.78 1.91 2.00 2.07 2.20 2.27 2.25 2.24 2.21
0.06 0.10 0.17 0.28 0.33 0.31 0.33 0.45 0.47 0.37 0.37 0.37 0.42 0.44 0.55 0.66 0.74 0.82 0.95 0.97 0.83 0.71 0.61 0.59 0.61 0.73 0.92 1.04 0.99 0.93 1.00 1.07 1.30 1.33 1.18 1.17 1.35 1.40 1.42 1.44 1.52 1.71 1.86 1.93 1.98 2.05 2.14 2.12 2.13
0.14 0.21 0.27 0.35 0.38 0.49 0.58 0.63 0.58 0.57 0.58 0.59 0.62 0.65 0.74 0.86 0.87 0.84 0.91 0.98 0.87 0.68 0.61 0.56 0.56 0.67 0.83 0.87 0.93 0.92 0.97 1.07 1.35 1.57 1.50 1.32 1.32 1.36 1.32 1.23 1.30 1.45 1.60 1.70 1.80 1.85 1.86 1.87 1.98
0.23 0.34 0.50 0.69 0.66 0.62 0.75 0.79 0.64 0.58 0.62 0.64 0.64 0.63 0.67 0.79 0.80 0.81 0.83 0.80 0.70 0.56 0.49 0.47 0.48 0.59 0.71 0.70 0.77 0.84 0.85 0.94 1.07 1.19 1.21 1.14 1.06 1.03 1.08 1.11 1.12 1.21 1.37 1.46 1.49 1.54 1.59 1.63 1.72